W7YP Weather Reports


time (UTC)temp
F
wind
direction
speed
knots
gust
knots
rain 1hr
in
rain 24hr
in
rain mn
in
humidity
%
barometer
mb
20260906122727 50 255 0.0 0.0 0.00 0.17 0.01 97 1018.6
20260906122220 50 255 0.0 0.0 0.00 0.17 0.01 97 1018.7
20260906121941 50 255 0.0 0.0 0.00 0.17 0.01 97 1018.7
20260906121426 50 255 0.0 0.0 0.00 0.17 0.01 97 1018.6
20260906120700 50 255 0.0 0.0 0.00 0.17 0.01 97 1018.8
20260906120148 51 255 0.0 0.0 0.00 0.17 0.01 97 1018.8
20260906115644 51 255 0.0 0.0 0.00 0.17 0.01 97 1019.1
20260906115406 51 255 0.0 0.0 0.00 0.17 0.01 97 1019.1
20260906114640 51 255 0.0 1.7 0.00 0.17 0.01 97 1018.9
20260906114140 51 255 0.0 1.7 0.00 0.17 0.01 97 1019.4
20260906113640 51 255 0.0 0.0 0.00 0.17 0.01 97 1019.1
20260906113136 51 255 0.0 2.6 0.00 0.17 0.01 97 1019.4
20260906112639 51 255 0.0 2.6 0.00 0.17 0.01 97 1019.4
20260906112126 51 254 0.0 2.6 0.00 0.17 0.01 97 1019.5
20260906111626 51 144 0.0 0.0 0.00 0.17 0.01 97 1019.4
20260906111126 51 144 0.0 0.0 0.00 0.17 0.01 97 1019.5
20260906110623 51 144 0.0 0.0 0.00 0.17 0.01 97 1019.5
20260906110339 51 144 0.0 0.9 0.00 0.17 0.01 97 1019.8
20260906105617 51 144 0.0 0.9 0.00 0.17 0.01 97 1019.7
20260906105117 51 144 0.0 0.0 0.00 0.17 0.01 97 1019.8
20260906104612 51 144 0.0 0.0 0.00 0.17 0.01 97 1019.7
20260906104112 51 144 0.0 0.0 0.00 0.17 0.01 97 1019.4
20260906103612 50 144 0.0 1.7 0.00 0.17 0.01 97 1019.2
20260906103115 50 144 0.0 1.7 0.00 0.17 0.01 97 1019.5
20260906102610 50 144 0.0 0.0 0.00 0.17 0.01 97 1018.9
20260906102053 50 144 0.0 0.0 0.00 0.17 0.01 97 1019.4
20260906101542 50 144 0.0 0.0 0.00 0.17 0.01 97 1019.8
20260906101307 50 144 0.0 0.0 0.00 0.17 0.01 97 1019.9
20260906100543 50 144 0.0 0.0 0.00 0.17 0.01 97 1019.6
20260906100046 50 144 0.0 0.0 0.00 0.17 0.01 97 1019.5
20260906095543 50 144 0.0 0.0 0.00 0.17 0.01 97 1019.5
20260906095039 50 144 0.0 0.0 0.00 0.17 0.01 97 1019.6
20260906094534 50 144 0.0 0.0 0.00 0.17 0.01 97 1019.6
20260906094031 50 144 0.0 0.0 0.00 0.17 0.01 97 1019.7
20260906093529 50 144 0.0 0.0 0.00 0.17 0.01 97 1019.9
20260906093029 51 144 0.0 0.0 0.00 0.17 0.01 97 1019.6
20260906092529 51 144 0.0 0.0 0.00 0.17 0.01 97 1019.6
20260906092032 51 144 0.0 0.0 0.00 0.17 0.01 97 1019.7
20260906091527 51 144 0.0 0.0 0.00 0.17 0.01 97 1019.6
20260906091019 51 144 0.0 0.0 0.00 0.17 0.01 97 1019.6
20260906090510 51 144 0.0 0.0 0.00 0.17 0.01 97 1019.4
20260906090004 51 144 0.0 0.0 0.00 0.17 0.01 97 1019.4
20260906085505 51 144 0.0 0.0 0.00 0.17 0.01 97 1019.3
20260906085005 51 144 0.0 0.0 0.00 0.17 0.01 97 1019.3
20260906084508 51 144 0.0 0.0 0.01 0.17 0.01 97 1019.3
20260906084225 51 144 0.0 0.0 0.01 0.17 0.01 97 1019.5
20260906083456 51 144 0.0 0.0 0.01 0.17 0.01 97 1019.4
20260906082956 51 144 0.0 0.0 0.01 0.17 0.01 97 1019.6
20260906082456 51 144 0.0 0.0 0.01 0.17 0.01 97 1019.7
20260906081946 51 144 0.0 0.0 0.01 0.17 0.01 97 1019.7
20260906081932 51 144 0.0 0.0 0.01 0.17 0.01 97 1019.8
20260906080944 51 144 0.0 0.0 0.01 0.17 0.01 97 1019.8
20260906080437 51 144 0.0 0.0 0.01 0.17 0.01 97 1019.9
20260906075932 51 144 0.0 0.0 0.01 0.17 0.01 97 1019.9
20260906075416 51 144 0.0 0.0 0.01 0.17 0.01 97 1020.1
20260906074911 51 144 0.0 0.0 0.01 0.17 0.01 97 1020.3
20260906074414 51 144 0.0 0.0 0.00 0.16 0.00 97 1020.1
20260906074352 51 144 0.0 0.0 0.00 0.16 0.00 96 1020.1
20260906073635 51 144 0.0 0.0 0.00 0.16 0.00 96 1019.9
20260906072912 51 144 0.0 0.0 0.00 0.16 0.00 96 1019.9
20260906072633 51 144 0.0 0.0 0.00 0.16 0.00 96 1020.1
20260906071900 51 144 0.0 0.0 0.00 0.16 0.00 96 1020.1
20260906071358 51 144 0.0 0.0 0.00 0.16 0.00 96 1020.1
20260906071117 51 144 0.0 0.0 0.00 0.16 0.00 96 1020.1
20260906070353 51 144 0.0 0.0 0.00 0.16 0.00 96 1020.1
20260906070334 51 144 0.0 0.0 0.00 0.16 0.00 96 1020.1
20260906065353 51 144 0.0 0.0 0.00 0.16 0.00 96 1020.1
20260906064853 51 144 0.0 0.0 0.00 0.16 0.00 96 1019.9
20260906064353 51 144 0.0 0.0 0.00 0.16 0.00 96 1020.2
20260906063853 51 144 0.0 0.0 0.00 0.16 0.00 96 1020.1
20260906063349 51 144 0.0 0.0 0.00 0.16 0.00 96 1020.1
20260906062843 51 144 0.0 0.0 0.00 0.16 0.00 96 1020.1
20260906062343 51 144 0.0 0.0 0.00 0.16 0.00 96 1020.1
20260906061839 51 144 0.0 0.0 0.00 0.16 0.00 96 1020.2
20260906061333 51 144 0.0 0.0 0.00 0.16 0.00 96 1020.3
20260906060835 51 144 0.0 0.0 0.00 0.16 0.00 96 1020.3
20260906060557 52 144 0.0 0.0 0.00 0.16 0.00 96 1020.3
20260906055830 52 144 0.0 0.0 0.06 0.16 0.16 96 1020.3
20260906055543 52 144 0.0 0.0 0.14 0.16 0.16 95 1020.2
20260906054827 52 144 0.0 0.0 0.14 0.16 0.16 95 1020.2
20260906054537 52 144 0.0 0.0 0.14 0.16 0.16 96 1020.2
20260906053815 52 144 0.0 0.0 0.14 0.16 0.16 96 1020.1
20260906053315 53 144 0.0 0.0 0.14 0.16 0.16 96 1020.2
20260906052815 53 144 0.0 0.0 0.14 0.16 0.16 96 1020.2
20260906052310 53 144 0.0 0.9 0.14 0.16 0.16 96 1020.3
20260906051806 53 144 0.0 0.9 0.14 0.16 0.16 96 1020.3
20260906051306 53 144 0.0 0.0 0.14 0.16 0.16 96 1020.4
20260906050807 53 144 0.0 1.7 0.14 0.16 0.16 96 1020.5
20260906050306 53 144 0.0 1.7 0.14 0.16 0.16 96 1020.7
20260906045806 53 144 0.0 1.7 0.08 0.10 0.10 96 1020.8
20260906045309 53 144 0.0 0.0 0.00 0.02 0.02 96 1021.1
20260906044803 52 144 0.0 0.0 0.00 0.02 0.02 95 1020.3
20260906044302 52 144 0.0 0.0 0.00 0.02 0.02 95 1020.1
20260906043802 52 144 0.0 0.0 0.00 0.02 0.02 95 1020.2
20260906043302 52 144 0.0 0.0 0.00 0.02 0.02 95 1020.1
20260906042758 52 144 0.0 0.0 0.00 0.02 0.02 95 1019.9
20260906042255 52 144 0.0 0.9 0.00 0.02 0.02 95 1020.1
20260906041733 52 144 0.0 0.9 0.00 0.02 0.02 95 1020.1
20260906041453 52 144 0.0 0.0 0.00 0.02 0.02 95 1019.7
20260906040723 52 144 0.0 0.0 0.00 0.02 0.02 94 1019.9
20260906040450 52 144 0.0 0.0 0.00 0.02 0.02 94 1019.8
20260906035713 52 144 0.0 0.0 0.00 0.02 0.02 94 1019.7
20260906035213 52 144 0.0 0.0 0.00 0.02 0.02 93 1019.7
20260906034708 52 144 0.0 0.0 0.00 0.02 0.02 93 1019.7
20260906034208 52 144 0.0 0.0 0.00 0.02 0.02 93 1019.6
20260906033659 52 144 0.0 0.0 0.00 0.02 0.02 93 1019.6
20260906033156 52 144 0.0 0.0 0.00 0.02 0.02 93 1019.6
20260906032638 52 144 0.0 0.0 0.00 0.02 0.02 93 1019.6
20260906032139 53 144 0.0 2.6 0.00 0.02 0.02 93 1019.4
20260906031634 53 144 0.0 2.6 0.00 0.02 0.02 93 1019.4
20260906031129 53 144 0.0 2.6 0.00 0.02 0.02 92 1019.3
20260906030846 53 144 0.0 1.7 0.00 0.02 0.02 92 1019.3
20260906030120 53 144 0.0 0.0 0.00 0.02 0.02 92 1019.4
20260906025615 53 144 0.0 0.0 0.00 0.02 0.02 92 1019.3
20260906025115 53 144 0.0 0.0 0.00 0.02 0.02 92 1019.1
20260906024610 54 144 0.0 0.0 0.00 0.02 0.02 91 1019.3
20260906024334 54 144 0.0 0.0 0.00 0.02 0.02 91 1019.1
20260906023610 54 144 0.0 0.0 0.00 0.02 0.02 91 1018.9
20260906023110 54 144 0.0 0.0 0.00 0.02 0.02 90 1018.8
20260906022611 55 144 0.0 0.0 0.00 0.02 0.02 90 1018.7
20260906022108 55 144 0.0 0.0 0.00 0.02 0.02 89 1018.8
20260906021601 55 144 0.0 0.0 0.00 0.02 0.02 89 1018.7
20260906021056 56 144 0.0 0.0 0.00 0.02 0.02 89 1018.7
20260906020543 56 144 0.0 0.0 0.00 0.02 0.02 89 1018.8
20260906020250 56 144 0.0 0.0 0.00 0.02 0.02 88 1018.7
20260906015515 56 144 0.0 0.9 0.00 0.02 0.02 88 1018.7
20260906015017 57 144 0.0 0.9 0.00 0.02 0.02 87 1018.7
20260906014515 57 144 0.0 0.0 0.00 0.02 0.02 86 1018.7
20260906014239 57 144 0.0 0.0 0.00 0.02 0.02 86 1018.7
20260906013519 58 144 0.0 0.0 0.00 0.02 0.02 85 1018.8
20260906013017 58 144 0.0 0.0 0.00 0.02 0.02 84 1018.7
20260906012506 59 144 0.0 0.0 0.00 0.02 0.02 82 1018.5
20260906012002 60 144 0.0 0.0 0.00 0.02 0.02 82 1018.5
20260906011456 60 144 0.0 0.0 0.00 0.02 0.02 81 1018.5
20260906010959 61 144 0.0 0.0 0.00 0.02 0.02 81 1018.4
20260906010455 62 144 0.0 0.0 0.00 0.02 0.02 80 1018.4
20260906005932 62 144 0.0 0.0 0.00 0.02 0.02 78 1018.4
20260906005432 63 144 0.0 0.0 0.00 0.02 0.02 77 1018.4
20260906004931 64 144 0.0 0.0 0.00 0.02 0.02 77 1018.3
20260906004436 64 144 0.0 0.0 0.00 0.02 0.02 78 1018.4
20260906003912 65 144 0.0 0.0 0.00 0.02 0.02 76 1018.4
20260906003408 65 144 0.0 0.0 0.00 0.02 0.02 77 1018.4
20260906002903 65 144 0.0 0.0 0.00 0.02 0.02 78 1018.4
20260906002403 65 144 0.0 0.0 0.00 0.02 0.02 77 1018.4
20260906001903 65 144 0.0 0.0 0.00 0.02 0.02 73 1018.5
20260906001358 65 144 0.0 0.0 0.00 0.02 0.02 68 1018.5
20260906000858 65 144 0.0 0.0 0.00 0.02 0.02 71 1018.6
20260906000359 65 144 0.0 0.0 0.01 0.02 0.02 67 1018.6
20260906000114 65 144 0.0 0.0 0.01 0.02 0.02 73 1018.7
20260905235357 65 144 0.0 0.0 0.01 0.02 0.02 76 1018.7
20260905234853 65 144 0.0 0.0 0.01 0.02 0.02 74 1018.7
20260905234354 65 144 0.0 0.0 0.01 0.02 0.02 74 1018.6
20260905233851 65 144 0.0 0.0 0.01 0.02 0.02 69 1018.7
20260905233334 65 144 0.0 0.0 0.01 0.02 0.02 71 1018.7
20260905232833 65 144 0.0 0.0 0.01 0.02 0.02 70 1018.7
20260905232329 65 144 0.0 0.0 0.01 0.02 0.02 72 1018.8
20260905231825 64 144 0.0 0.0 0.01 0.02 0.02 69 1018.9
20260905231321 64 144 0.0 0.0 0.01 0.02 0.02 66 1018.8
20260905231038 64 144 0.0 0.0 0.00 0.01 0.02 69 1018.9
20260905230321 63 144 0.0 0.0 0.00 0.01 0.01 74 1018.9
20260905225820 63 144 0.0 0.0 0.00 0.01 0.01 71 1018.9
20260905225322 62 144 0.0 0.0 0.00 0.01 0.01 75 1018.9
20260905224816 62 144 0.0 0.0 0.00 0.01 0.01 71 1019.1
20260905224319 62 144 0.0 0.0 0.00 0.01 0.01 80 1019.1
20260905223809 62 144 0.0 0.0 0.00 0.01 0.01 83 1019.2
20260905223253 62 144 0.0 0.0 0.00 0.01 0.01 84 1019.2
20260905223016 62 144 0.0 0.0 0.00 0.01 0.01 83 1019.3
20260905222516 62 144 0.0 0.0 0.00 0.01 0.01 82 1019.3
20260905221741 62 144 0.0 0.0 0.00 0.01 0.01 80 1019.3
20260905221730 63 144 0.0 0.0 0.00 0.01 0.01 80 1019.5
20260905220739 63 144 0.0 0.0 0.00 0.01 0.01 80 1019.5
20260905220458 63 144 0.0 0.0 0.00 0.01 0.01 80 1019.6
20260905215731 63 144 0.0 0.0 0.00 0.01 0.01 78 1019.6
20260905215232 63 144 0.0 0.0 0.00 0.01 0.01 75 1019.7
20260905214956 64 144 0.0 0.0 0.00 0.01 0.01 74 1019.8
20260905214233 64 144 0.0 0.0 0.00 0.01 0.01 72 1019.7
20260905213735 64 144 0.0 0.0 0.00 0.01 0.01 73 1019.8
20260905213442 64 144 0.0 0.0 0.00 0.01 0.01 73 1019.8
20260905212717 64 144 0.0 0.0 0.00 0.01 0.01 72 1019.8
20260905212212 64 144 0.0 0.0 0.00 0.01 0.01 71 1019.8
20260905211713 65 144 0.0 0.0 0.00 0.01 0.01 69 1019.9
20260905211438 65 144 0.0 0.9 0.00 0.01 0.01 68 1019.9
20260905210713 65 144 0.0 0.9 0.00 0.01 0.01 63 1019.9
20260905210216 65 144 0.0 1.7 0.00 0.01 0.01 65 1019.9
20260905205709 64 144 0.0 1.7 0.00 0.01 0.01 64 1019.9
20260905205208 64 142 0.0 2.6 0.00 0.01 0.01 64 1019.9
20260905204704 64 142 0.0 2.6 0.00 0.01 0.01 64 1019.9
20260905204204 64 142 0.0 1.7 0.00 0.01 0.01 68 1019.9
20260905203649 64 142 0.0 1.7 0.00 0.01 0.01 67 1020.1
20260905203143 64 142 0.0 1.7 0.00 0.01 0.01 69 1019.9
20260905202638 64 131 0.0 0.0 0.00 0.01 0.01 68 1020.1
20260905202134 64 131 0.0 1.7 0.00 0.01 0.01 65 1020.2
20260905201848 64 131 0.0 1.7 0.00 0.01 0.01 65 1020.2
20260905201129 64 177 0.0 1.7 0.00 0.01 0.01 67 1020.1
20260905201115 63 177 0.0 1.7 0.00 0.01 0.01 67 1020.2
20260905200125 63 264 0.0 1.7 0.00 0.01 0.01 67 1020.2
20260905195627 63 140 0.0 2.6 0.00 0.01 0.01 68 1020.2
20260905195125 62 141 0.0 2.6 0.00 0.01 0.01 70 1020.3
20260905194624 62 141 0.0 0.9 0.00 0.01 0.01 72 1020.2
20260905194115 62 141 0.0 2.6 0.00 0.01 0.01 76 1020.3
20260905193615 62 140 0.0 2.6 0.00 0.01 0.01 71 1020.3
20260905193115 61 90 0.0 1.7 0.00 0.01 0.01 75 1020.3
20260905192610 60 329 0.0 1.7 0.00 0.01 0.01 77 1020.3
20260905192105 60 329 0.0 2.6 0.00 0.01 0.01 75 1020.4
20260905191608 60 329 0.0 2.6 0.00 0.01 0.01 74 1020.4
20260905191108 60 175 0.0 1.7 0.00 0.01 0.01 75 1020.5
20260905190606 60 174 0.0 4.3 0.00 0.01 0.01 77 1020.5
20260905190106 59 173 0.0 4.3 0.00 0.01 0.01 81 1020.5
20260905185606 59 158 0.0 0.0 0.00 0.01 0.01 80 1020.6
20260905185109 59 158 0.0 0.9 0.00 0.01 0.01 80 1020.5
20260905184551 58 158 0.0 1.7 0.00 0.01 0.01 79 1020.6
20260905184310 58 158 0.0 1.7 0.00 0.01 0.01 80 1020.6
20260905183800 58 292 0.0 0.0 0.00 0.01 0.01 83 1020.6
20260905183045 57 292 0.0 0.0 0.00 0.01 0.01 83 1020.6
20260905182802 57 292 0.0 0.0 0.00 0.01 0.01 86 1020.7
20260905182043 56 292 0.0 0.9 0.00 0.01 0.01 85 1020.7
20260905181543 56 292 0.0 0.9 0.00 0.01 0.01 89 1020.7
20260905181038 55 291 0.0 0.9 0.00 0.01 0.01 88 1020.7
20260905180537 54 291 0.0 0.0 0.00 0.01 0.01 86 1020.8
20260905180038 54 291 0.0 0.0 0.00 0.01 0.01 88 1020.8
20260905175538 54 291 0.0 0.0 0.00 0.01 0.01 89 1020.8
20260905175038 54 291 0.0 0.0 0.00 0.01 0.01 89 1021.1
20260905174528 54 291 0.0 0.0 0.00 0.01 0.01 89 1021.0
20260905174249 53 291 0.0 0.9 0.00 0.01 0.01 91 1021.0
20260905173522 53 291 0.0 0.9 0.00 0.01 0.01 92 1021.0
20260905173013 53 291 0.0 0.0 0.00 0.01 0.01 94 1021.0
20260905172513 53 291 0.0 2.6 0.00 0.01 0.01 96 1021.0
20260905172013 52 291 0.0 2.6 0.00 0.01 0.01 96 1021.0
20260905171731 52 293 0.0 0.9 0.00 0.01 0.01 97 1021.0
20260905171015 51 292 0.0 0.9 0.00 0.01 0.01 98 1021.0
20260905170511 51 293 0.0 0.0 0.00 0.01 0.01 98 1021.0
20260905170010 50 293 0.0 0.0 0.00 0.01 0.01 98 1021.0
20260905165509 50 293 0.0 0.0 0.00 0.01 0.01 97 1021.0
20260905165010 50 293 0.0 0.0 0.00 0.01 0.01 97 1021.0
20260905164732 50 293 0.0 0.0 0.00 0.01 0.01 97 1021.1
20260905164005 50 293 0.0 0.0 0.01 0.01 0.01 97 1021.1
20260905163733 50 293 0.0 0.0 0.01 0.01 0.01 97 1021.0
20260905163006 49 293 0.0 0.0 0.01 0.01 0.01 97 1021.0
20260905162506 49 293 0.0 0.9 0.01 0.01 0.01 97 1020.8
20260905162007 49 293 0.0 1.7 0.01 0.01 0.01 97 1021.0
20260905161501 50 293 0.0 1.7 0.01 0.01 0.01 97 1020.8
20260905161001 50 293 0.0 0.9 0.01 0.01 0.01 98 1020.8
20260905160457 50 293 0.0 0.0 0.01 0.01 0.01 98 1020.8
20260905155954 49 293 0.0 0.0 0.01 0.01 0.01 98 1020.6
20260905155452 49 293 0.0 0.0 0.01 0.01 0.01 98 1020.6
20260905154951 49 293 0.0 0.0 0.01 0.01 0.01 98 1020.6
20260905154455 49 293 0.0 0.0 0.01 0.01 0.01 98 1020.6
20260905153947 49 293 0.0 0.0 0.00 0.00 0.00 98 1020.6
20260905153442 49 293 0.0 0.0 0.00 0.00 0.00 98 1020.6
20260905153203 49 293 0.0 0.0 0.00 0.00 0.00 98 1020.6
20260905152443 49 293 0.0 0.0 0.00 0.00 0.00 98 1020.7
20260905151946 49 293 0.0 0.0 0.00 0.00 0.00 97 1020.6
20260905151443 49 293 0.0 0.0 0.00 0.00 0.00 98 1020.7
20260905150938 49 293 0.0 0.0 0.00 0.01 0.00 98 1020.6
20260905150655 48 293 0.0 0.0 0.00 0.01 0.00 97 1020.6
20260905145933 48 293 0.0 0.0 0.00 0.01 0.00 97 1020.5
20260905145432 48 293 0.0 0.0 0.00 0.01 0.00 97 1020.5
20260905144929 48 293 0.0 0.0 0.00 0.02 0.00 97 1020.5
20260905144414 48 293 0.0 0.0 0.00 0.02 0.00 97 1020.5
20260905143914 48 293 0.0 0.0 0.00 0.02 0.00 97 1020.4
20260905143408 48 293 0.0 0.0 0.00 0.02 0.00 97 1020.4
20260905142909 48 293 0.0 0.0 0.00 0.02 0.00 97 1020.4
20260905142412 48 293 0.0 0.0 0.00 0.02 0.00 97 1020.4
20260905141907 48 293 0.0 0.0 0.00 0.02 0.00 97 1020.4
20260905141405 48 293 0.0 0.0 0.00 0.02 0.00 97 1020.3
20260905140905 48 293 0.0 0.0 0.00 0.02 0.00 97 1020.2
20260905140359 48 293 0.0 0.0 0.00 0.02 0.00 97 1019.9
20260905140128 48 293 0.0 0.0 0.00 0.03 0.00 97 1020.1
20260905135350 48 293 0.0 0.0 0.00 0.03 0.00 97 1020.1
20260905134850 48 293 0.0 0.0 0.00 0.03 0.00 97 1019.9
20260905134346 48 293 0.0 0.0 0.00 0.03 0.00 97 1019.9
20260905133848 48 293 0.0 0.0 0.00 0.03 0.00 97 1019.9
20260905133607 48 293 0.0 0.0 0.00 0.03 0.00 97 1020.1
20260905132846 48 293 0.0 0.0 0.00 0.03 0.00 97 1019.9
20260905132606 48 293 0.0 0.0 0.00 0.03 0.00 97 1019.9
20260905131841 48 293 0.0 0.0 0.00 0.03 0.00 97 1019.6
20260905131336 48 293 0.0 0.0 0.00 0.03 0.00 97 1019.5
20260905130832 48 293 0.0 0.0 0.00 0.03 0.00 97 1019.4
20260905130334 48 293 0.0 0.0 0.00 0.03 0.00 97 1019.2
20260905130058 48 293 0.0 0.0 0.00 0.03 0.00 97 1019.2
20260905125557 48 293 0.0 0.0 0.00 0.03 0.00 97 1019.2
20260905124832 48 293 0.0 0.0 0.00 0.03 0.00 97 1019.1
20260905124328 48 293 0.0 0.0 0.00 0.03 0.00 97 1019.1
20260905124054 48 293 0.0 0.0 0.00 0.03 0.00 97 1019.2
20260905123328 48 293 0.0 0.0 0.00 0.03 0.00 97 1019.2